FW6650 Weather Reports


Display with metric or nautical units.
time (UTC)temp
F
wind
direction
speed
MPH
gust
MPH
rain 1hr
in
rain 24hr
in
rain mn
in
humidity
%
barometer
mb
20260502212026 49 0 0.0 1.0 0.00 0.00 0.00 57 1015.5
20260502211535 49 0 0.0 1.0 0.00 0.00 0.00 56 1015.5
20260502211027 49 0 0.0 1.0 0.00 0.00 0.00 56 1015.5
20260502210527 49 0 0.0 4.0 0.00 0.00 0.00 56 1015.4
20260502210039 49 0 0.0 4.0 0.00 0.00 0.00 54 1015.4
20260502205527 49 292 0.0 4.0 0.00 0.00 0.00 54 1015.6
20260502205030 49 292 0.0 4.0 0.00 0.00 0.00 54 1015.6
20260502204540 49 0 0.0 5.0 0.00 0.00 0.00 54 1015.6
20260502204028 49 288 2.0 5.0 0.00 0.00 0.00 54 1015.6
20260502203529 49 290 2.0 4.0 0.00 0.00 0.00 54 1015.7
20260502203055 49 0 0.0 0.0 0.00 0.00 0.00 55 1015.7
20260502202529 49 0 0.0 0.0 0.00 0.00 0.00 54 1015.7
20260502202027 49 0 0.0 0.0 0.00 0.00 0.00 55 1015.7
20260502201535 49 0 0.0 0.0 0.00 0.00 0.00 54 1015.8
20260502201027 49 0 0.0 3.0 0.00 0.00 0.00 54 1015.8
20260502200527 49 0 0.0 3.0 0.00 0.00 0.00 53 1015.8
20260502200041 49 0 1.0 3.0 0.00 0.00 0.00 54 1016.0
20260502195527 49 205 0.0 3.0 0.00 0.00 0.00 54 1016.0
20260502195027 49 0 0.0 3.0 0.00 0.00 0.00 54 1016.0
20260502194542 50 209 0.0 6.0 0.00 0.00 0.00 53 1015.8
20260502194027 50 216 1.0 6.0 0.00 0.00 0.00 52 1015.9
20260502193527 50 202 1.0 4.0 0.00 0.00 0.00 53 1015.9
20260502193034 50 204 1.0 4.0 0.00 0.00 0.00 53 1015.8
20260502192528 50 216 2.0 5.0 0.00 0.00 0.00 53 1015.8
20260502192026 50 226 1.0 5.0 0.00 0.00 0.00 52 1015.8
20260502191542 50 249 1.0 5.0 0.00 0.00 0.00 52 1015.8
20260502191026 50 0 3.0 5.0 0.00 0.00 0.00 52 1015.8
20260502190526 50 223 2.0 6.0 0.00 0.00 0.00 53 1015.8
20260502190036 50 221 0.0 6.0 0.00 0.00 0.00 52 1015.8
20260502185527 50 220 4.0 6.0 0.00 0.00 0.00 52 1015.8
20260502185029 50 254 1.0 3.0 0.00 0.00 0.00 52 1015.8
20260502184535 50 268 0.0 4.0 0.00 0.00 0.00 52 1015.7
20260502184027 50 267 0.0 4.0 0.00 0.00 0.00 53 1015.7
20260502183527 50 311 0.0 4.0 0.00 0.00 0.00 52 1015.7
20260502183041 50 0 1.0 5.0 0.00 0.00 0.00 51 1015.7
20260502182527 50 313 0.0 5.0 0.00 0.00 0.00 51 1015.6
20260502182027 50 314 1.0 5.0 0.00 0.00 0.00 51 1015.6
20260502181534 51 311 0.0 9.0 0.00 0.00 0.00 51 1015.5
20260502181027 50 313 3.0 10.0 0.00 0.00 0.00 51 1015.5
20260502180529 50 342 3.0 10.0 0.00 0.00 0.00 51 1015.4
20260502164026 52 19 11.0 21.0 0.00 0.00 0.00 48 1015.3
20260502163526 52 17 12.0 19.0 0.00 0.00 0.00 47 1015.4
20260502163041 52 296 12.0 17.0 0.00 0.00 0.00 47 1015.3
20260502162531 52 321 8.0 20.0 0.00 0.00 0.00 47 1015.3
20260502162026 52 5 11.0 27.0 0.00 0.00 0.00 46 1015.3
20260502161548 53 28 10.0 27.0 0.00 0.00 0.00 45 1015.3
20260502161026 53 19 15.0 27.0 0.00 0.00 0.00 45 1015.2
20260502160526 53 338 12.0 21.0 0.00 0.00 0.00 45 1015.4
20260502152026 52 328 10.0 21.0 0.00 0.00 0.00 48 1015.3
20260502151533 52 29 11.0 21.0 0.00 0.00 0.00 49 1015.5
20260502151026 52 360 7.0 20.0 0.00 0.00 0.00 49 1015.6
20260502150528 52 330 12.0 20.0 0.00 0.00 0.00 48 1015.6
20260502130526 53 61 11.0 24.0 0.00 0.00 0.00 45 1015.9
20260502123527 52 71 10.0 23.0 0.00 0.00 0.00 49 1016.1
20260502123059 52 350 13.0 23.0 0.00 0.00 0.00 48 1016.0
20260502122526 53 343 11.0 23.0 0.00 0.00 0.00 48 1016.1
20260502122026 53 360 11.0 23.0 0.00 0.00 0.00 47 1016.0
20260502121533 54 322 10.0 24.0 0.00 0.00 0.00 48 1016.0
20260502121026 53 37 11.0 24.0 0.00 0.00 0.00 48 1015.9
20260502120526 53 344 15.0 24.0 0.00 0.00 0.00 48 1016.0
20260502115529 53 329 13.0 24.0 0.00 0.00 0.00 48 1016.1
20260502115027 53 355 12.0 24.0 0.00 0.00 0.00 47 1016.1
20260502114534 54 344 11.0 24.0 0.00 0.00 0.00 47 1016.0
20260502114027 54 5 15.0 24.0 0.00 0.00 0.00 48 1015.9
20260502113530 53 30 13.0 29.0 0.00 0.00 0.00 49 1016.0
20260502113044 53 350 14.0 29.0 0.00 0.00 0.00 48 1016.0
20260502112526 54 334 12.0 23.0 0.00 0.00 0.00 50 1016.0
20260502112026 53 19 10.0 19.0 0.00 0.00 0.00 51 1016.1
20260502111536 53 341 9.0 21.0 0.00 0.00 0.00 52 1016.2
20260502111026 51 334 10.0 21.0 0.00 0.00 0.00 54 1016.3
20260502110526 51 329 14.0 24.0 0.00 0.00 0.00 54 1016.3
20260502110033 51 350 12.0 26.0 0.00 0.00 0.00 55 1016.3
20260502105527 51 314 15.0 26.0 0.00 0.00 0.00 54 1016.5
20260502105027 52 5 15.0 25.0 0.00 0.00 0.00 54 1016.6
20260502104540 53 15 9.0 21.0 0.00 0.00 0.00 55 1016.6
20260502104026 52 342 10.0 21.0 0.00 0.00 0.00 55 1016.6
20260502103527 52 360 12.0 27.0 0.00 0.00 0.00 54 1016.7
20260502103033 52 37 14.0 27.0 0.00 0.00 0.00 54 1016.8
20260502102526 52 313 10.0 19.0 0.00 0.00 0.00 55 1016.8
20260502102026 52 360 9.0 24.0 0.00 0.00 0.00 55 1016.8
20260502101536 52 323 11.0 25.0 0.00 0.00 0.00 54 1016.7
20260502101026 53 355 12.0 25.0 0.00 0.00 0.00 54 1016.7
20260502100526 52 329 7.0 19.0 0.00 0.00 0.00 56 1016.7
20260502091024 52 67 7.0 24.0 0.00 0.00 0.00 57 1016.5
20260502090526 52 350 12.0 25.0 0.00 0.00 0.00 57 1016.6
20260502071027 53 30 12.0 26.0 0.00 0.00 0.00 55 1016.2
20260502070526 53 49 9.0 19.0 0.00 0.00 0.00 55 1016.1
20260502070034 53 10 10.0 23.0 0.00 0.00 0.00 56 1016.2
20260502065526 53 331 12.0 23.0 0.00 0.00 0.00 56 1016.1
20260502065027 52 340 10.0 22.0 0.00 0.00 0.00 56 1016.2
20260502064546 52 44 11.0 22.0 0.00 0.00 0.00 56 1016.1
20260502064027 52 33 12.0 24.0 0.00 0.00 0.00 55 1016.2
20260502063527 52 28 12.0 24.0 0.00 0.00 0.00 54 1016.4
20260502063035 52 333 10.0 22.0 0.00 0.00 0.00 55 1016.3
20260502062526 52 13 12.0 24.0 0.00 0.00 0.00 54 1016.3
20260502062025 52 20 13.0 24.0 0.00 0.00 0.00 53 1016.3
20260502061534 53 34 8.0 20.0 0.00 0.00 0.00 56 1016.3
20260502061025 52 355 11.0 20.0 0.00 0.00 0.00 56 1016.3
20260502060526 52 5 11.0 20.0 0.00 0.00 0.00 56 1016.2
20260502060033 52 309 8.0 20.0 0.00 0.00 0.00 58 1016.3
20260502055526 51 332 11.0 20.0 0.00 0.00 0.00 59 1016.3
20260502055027 51 332 10.0 22.0 0.00 0.00 0.00 60 1016.1
20260502054537 51 351 12.0 22.0 0.00 0.00 0.00 60 1016.1
20260502054026 51 350 11.0 21.0 0.00 0.00 0.00 62 1016.4
20260502053526 51 63 11.0 20.0 0.00 0.00 0.00 62 1016.4
20260502053042 51 11 8.0 20.0 0.00 0.00 0.00 65 1016.4
20260502052526 50 11 9.0 17.0 0.00 0.00 0.00 66 1016.5
20260502052026 50 33 10.0 20.0 0.00 0.00 0.00 65 1016.4
20260502051542 50 36 8.0 20.0 0.00 0.00 0.00 66 1016.4
20260502051025 50 339 8.0 20.0 0.00 0.00 0.00 65 1016.3
20260502050526 50 355 10.0 19.0 0.00 0.00 0.00 65 1016.2
20260502050042 50 26 7.0 24.0 0.00 0.00 0.00 65 1016.3
20260502045528 50 39 11.0 24.0 0.00 0.00 0.00 65 1016.3
20260502045027 50 30 8.0 18.0 0.00 0.00 0.00 65 1016.3
20260502044539 50 24 10.0 19.0 0.00 0.00 0.00 65 1016.4
20260502044025 50 28 11.0 19.0 0.00 0.00 0.00 65 1016.5
20260502043525 50 346 10.0 19.0 0.00 0.00 0.00 65 1016.3
20260502043037 50 338 9.0 15.0 0.00 0.00 0.00 66 1016.2
20260502042526 50 355 6.0 17.0 0.00 0.00 0.00 67 1016.2
20260502042026 50 32 6.0 17.0 0.00 0.00 0.00 66 1016.2
20260502041534 50 22 8.0 16.0 0.00 0.00 0.00 66 1016.3
20260502041026 50 355 7.0 13.0 0.00 0.00 0.00 67 1016.3
20260502040526 50 57 7.0 14.0 0.00 0.00 0.00 67 1016.3
20260502040039 50 338 8.0 19.0 0.00 0.00 0.00 67 1016.4
20260502035526 50 5 9.0 19.0 0.00 0.00 0.00 68 1016.4
20260502035026 50 45 9.0 17.0 0.00 0.00 0.00 69 1016.3
20260502034537 49 40 8.0 16.0 0.00 0.00 0.00 71 1016.3
20260502034025 49 32 8.0 15.0 0.00 0.00 0.00 71 1016.3
20260502033525 50 330 6.0 17.0 0.00 0.00 0.00 72 1016.1
20260502033037 50 24 6.0 18.0 0.00 0.00 0.00 71 1016.0
20260502032525 50 355 8.0 18.0 0.00 0.00 0.00 70 1015.9
20260502032025 50 355 9.0 16.0 0.00 0.00 0.00 68 1015.9
20260502031533 50 5 8.0 16.0 0.00 0.00 0.00 68 1016.0
20260502031027 50 333 9.0 17.0 0.00 0.00 0.00 66 1015.9
20260502030524 50 16 9.0 17.0 0.00 0.00 0.00 66 1015.8
20260502030046 50 30 10.0 17.0 0.00 0.00 0.00 66 1016.0
20260502025526 50 355 7.0 14.0 0.00 0.00 0.00 66 1016.0
20260502025026 50 355 5.0 12.0 0.00 0.00 0.00 66 1016.0
20260502024540 50 39 7.0 13.0 0.00 0.00 0.00 66 1016.1
20260502024026 50 17 8.0 14.0 0.00 0.00 0.00 66 1016.1
20260502023526 50 53 7.0 14.0 0.00 0.00 0.00 66 1016.0
20260502023033 50 32 8.0 14.0 0.00 0.00 0.00 66 1016.0
20260502022528 50 35 5.0 13.0 0.00 0.00 0.00 66 1016.0
20260502022029 50 22 6.0 13.0 0.00 0.00 0.00 66 1016.0
20260502021537 50 22 7.0 15.0 0.00 0.00 0.00 66 1016.0
20260502021025 50 360 6.0 15.0 0.00 0.00 0.00 66 1016.0
20260502020526 50 25 6.0 15.0 0.00 0.00 0.00 66 1016.0
20260502020033 50 333 5.0 16.0 0.00 0.00 0.00 66 1016.0
20260502015526 50 5 9.0 16.0 0.00 0.00 0.00 66 1016.0
20260502015028 50 307 7.0 12.0 0.00 0.00 0.00 66 1015.9
20260502014535 50 28 4.0 16.0 0.00 0.00 0.00 66 1016.1
20260502014025 50 44 7.0 16.0 0.00 0.00 0.00 67 1016.1
20260502013525 50 22 5.0 14.0 0.00 0.00 0.00 68 1016.2
20260502013043 50 349 7.0 14.0 0.00 0.00 0.00 68 1016.1
20260502012526 50 15 5.0 11.0 0.00 0.00 0.00 70 1016.3
20260502012026 50 360 4.0 11.0 0.00 0.00 0.00 69 1016.1
20260502011540 50 33 6.0 13.0 0.00 0.00 0.00 70 1016.2
20260502011025 50 15 4.0 13.0 0.00 0.00 0.00 70 1016.2
20260502010525 50 360 4.0 15.0 0.00 0.00 0.00 70 1016.2
20260502010038 50 5 5.0 15.0 0.00 0.00 0.00 70 1016.1
20260502005526 50 32 9.0 15.0 0.00 0.00 0.00 70 1016.2
20260502005026 50 355 5.0 9.0 0.00 0.00 0.00 70 1016.2
20260502004533 50 33 5.0 11.0 0.00 0.00 0.00 71 1016.2
20260502004033 50 5 6.0 14.0 0.00 0.00 0.00 71 1016.2
20260502003525 50 347 6.0 14.0 0.00 0.00 0.00 72 1016.2
20260502003035 50 17 8.0 15.0 0.00 0.00 0.00 72 1016.2
20260502002525 50 338 9.0 15.0 0.00 0.00 0.00 72 1016.3
20260502002023 51 32 7.0 14.0 0.00 0.00 0.00 71 1016.4
20260502001545 50 9 5.0 13.0 0.00 0.00 0.00 71 1016.4
20260502001027 50 43 6.0 12.0 0.00 0.00 0.00 71 1016.4
20260502000526 50 343 5.0 10.0 0.00 0.00 0.00 71 1016.5
20260502000041 50 350 6.0 11.0 0.00 0.00 0.00 71 1016.5
20260501235526 50 5 5.0 11.0 0.00 0.02 0.00 71 1016.6
20260501235030 50 325 4.0 12.0 0.00 0.02 0.00 72 1016.4
20260501234540 50 335 4.0 12.0 0.00 0.02 0.00 71 1016.6
20260501234027 51 327 4.0 12.0 0.00 0.02 0.00 71 1016.7
20260501233527 51 334 5.0 10.0 0.00 0.02 0.00 71 1016.7
20260501233036 51 338 6.0 10.0 0.00 0.02 0.00 70 1016.8
20260501232525 51 15 3.0 6.0 0.00 0.02 0.00 70 1016.7
20260501232025 51 330 2.0 12.0 0.00 0.02 0.00 70 1016.7
20260501231536 51 348 3.0 14.0 0.00 0.02 0.00 69 1016.7
20260501231025 51 345 6.0 15.0 0.00 0.02 0.00 68 1016.7
20260501230528 51 350 8.0 15.0 0.00 0.02 0.00 68 1016.8
20260501230035 51 25 4.0 17.0 0.00 0.02 0.00 67 1016.7
20260501225525 51 355 7.0 17.0 0.00 0.02 0.00 67 1016.8
20260501225026 51 360 4.0 16.0 0.00 0.02 0.00 67 1016.9
20260501224537 51 59 7.0 16.0 0.00 0.02 0.00 67 1017.0
20260501224022 51 40 7.0 17.0 0.00 0.02 0.00 68 1017.1
20260501223526 51 25 7.0 17.0 0.00 0.02 0.00 67 1017.2
20260501223039 51 5 9.0 17.0 0.00 0.02 0.00 67 1017.2
20260501222528 51 347 6.0 16.0 0.00 0.02 0.00 67 1017.4
20260501222026 51 0 4.0 10.0 0.00 0.02 0.00 68 1017.5
20260501221546 51 348 1.0 14.0 0.00 0.02 0.00 68 1017.6
20260501221025 51 15 4.0 14.0 0.00 0.02 0.00 68 1017.6
20260501220525 51 34 6.0 16.0 0.00 0.02 0.00 68 1017.5
20260501220041 51 10 8.0 16.0 0.00 0.02 0.00 68 1017.6
20260501215526 51 333 5.0 15.0 0.00 0.02 0.00 68 1017.7
20260501215026 51 12 6.0 16.0 0.00 0.02 0.00 68 1017.6
20260501214542 51 39 8.0 16.0 0.00 0.02 0.00 68 1017.6
20260501214025 51 18 8.0 15.0 0.00 0.02 0.00 68 1017.5
20260501213525 52 19 5.0 13.0 0.00 0.02 0.00 68 1017.4
20260501213035 52 48 5.0 19.0 0.00 0.02 0.00 68 1017.8
20260501212525 52 18 6.0 19.0 0.00 0.02 0.00 68 1017.8